Regional Weather Roundup
Issued by NWS

Home | Current Version | Previous Version | Graphics & Text | Print | Product List | Glossary On
Versions: 1 2 3 4 5 6 7 8 9 10 11 12 13 14 15 16 17 18 19 20 21 22 23 24 25 26 27 28 29 30 31 32 33 34 35 36 37 38 39 40 41 42 43 44 45 46 47 48 49 50
000
ASUS43 KMKX 310921
RWRWI

WISCONSIN REGIONAL WEATHER ROUNDUP
NATIONAL WEATHER SERVICE MILWAUKEE/SULLIVAN WI
400 AM CDT MON AUG 31 2015

NOTE: "FAIR" INDICATES FEW OR NO CLOUDS BELOW 12,000 FEET WITH NO
SIGNIFICANT WEATHER AND/OR OBSTRUCTIONS TO VISIBILITY.

WIZ001-002-006>008-014>016-023>028-311000-
NORTHWEST WISCONSIN

CITY           SKY/WX    TMP DP  RH WIND       PRES   REMARKS
SUPERIOR ARPT  PTCLDY    64  63  98 SW3       29.88S
ASHLAND        PTCLDY    65  65 100 S6        29.92S
HAYWARD        CLOUDY    65  63  93 S7        29.95F
SIREN          CLEAR     64  63  96 S3        29.93S
CUMBERLAND     CLOUDY    63  61  94 S7        29.96F FOG
RICE LAKE      CLOUDY    63  62  95 SE5       29.98S FOG
CHETEK         FOG      N/A N/A N/A E5        29.98S VSB 3/4
LADYSMITH      FOG       64  63  97 S3        30.00S VSB 1
EAU CLAIRE     CLEAR     61  59  93 S3        29.97S
MENOMONIE      FOG       59  58  98 E5        29.97S VSB 1/4
NEW RICHMOND   CLEAR     62  62  99 S7        29.95S FOG
OSCEOLA        CLOUDY    64  64 100 S5        29.97R
$$

WIZ003>005-009-010-017-018-311000-
NORTH CENTRAL WISCONSIN

CITY           SKY/WX    TMP DP  RH WIND       PRES   REMARKS
MANITOWISH WTR CLOUDY    64  64 100 SW7       29.99S
ARBOR VITAE    CLOUDY    64  63  96 SW3       30.00S
WOODRUFF       CLOUDY    64  63  96 SW3       30.00S
RHINELANDER    CLOUDY    64  62  93 W7        30.02S FOG
EAGLE RIVER    CLOUDY    64  62  96 W8        30.00S
LAND O LAKES   CLOUDY    64  63  95 SW6       30.00S
PHILLIPS       CLOUDY    63  63 100 SW5       29.99F FOG
TOMAHAWK       CLOUDY    63  62  97 CALM      30.01F FOG
MEDFORD        FOG       61  61 100 SW5       30.01F VSB 1/4
MERRILL        CLOUDY    63  63 100 W3        30.01F FOG
$$

WIZ029-030-035-036-043>047-311000-
CENTRAL WISCONSIN

CITY           SKY/WX    TMP DP  RH WIND       PRES   REMARKS
WAUSAU         CLOUDY    63  62  97 SW3       30.00S FOG
MOSINEE        FOG       61  61 100 SW3       30.03S VSB 1/4
MARSHFIELD     FOG       61  59  93 SW3       30.02R VSB<1/4
STEVENS POINT  FOG       60  60 100 CALM      30.02S VSB 1/2
WAUPACA        FOG       59  58  97 CALM      30.02S VSB 1/4
WAUTOMA        FOG       59  59 100 CALM      30.03R VSB<1/4
WISC RAPIDS    FOG       60  58  92 SW3       30.03S VSB 1/4
CAMP DOUGLAS   FOG       55  55 100 SE2       30.01S VSB 1/2
$$

WIZ011>013-019>022-031-037>040-048>050-311000-
NORTHEAST WISCONSIN

CITY           SKY/WX    TMP DP  RH WIND       PRES   REMARKS
ANTIGO         FOG       61  61 100 W8        30.02S VSB 1/2
SHAWANO        CLEAR     63  62  96 CALM      30.00S FOG
OCONTO         CLEAR     60  60 100 SW3       29.99S
STURGEON BAY   CLEAR     64  61  88 W7        30.02R
GREEN BAY      CLEAR     62  61  96 SW5       30.02R FOG
MANITOWOC      CLEAR     57  55  94 MISG      30.01F FOG
APPLETON       MOCLDY    61  61 100 SW5       30.01S FOG
CLINTONVILLE   FOG       59  57  94 CALM      30.01S VSB 1
OSHKOSH        CLEAR     59  57  93 S3        30.02R FOG
$$

WIZ032>034-041-042-053>061-311000-
SOUTHWEST WISCONSIN

CITY           SKY/WX    TMP DP  RH WIND       PRES   REMARKS
LA CROSSE      CLOUDY    64  64 100 S6        30.00S FOG
SPARTA         CLOUDY    53  52  95 CALM      30.02S
VIROQUA          N/A     63  63 100 S3        30.03S
BOSCOBEL       FOG       59  58  96 CALM      30.03R VSB 1/4
PRAIRIE DU CHI CLOUDY    60  58  95 CALM      30.02S FOG
PLATTEVILLE      N/A     61  61 100 S3        30.03S VSB 1/2
$$

WIZ056-057-062-063-064-067-068-311000-
SOUTH CENTRAL WISCONSIN

CITY           SKY/WX    TMP DP  RH WIND       PRES   REMARKS
REEDSBURG      PTCLDY    59  59 100 CALM      30.02S
BARABOO/DELLS  FOG       60  58  94 CALM      30.03R VSB 3/4
LONE ROCK      FOG       58  57  97 CALM      30.03S VSB 1/2
MINERAL POINT  CLEAR     63  63 100 CALM      30.04S FOG
MADISON        FOG       58  57  97 CALM      30.03S VSB 1/4
MIDDLETON      CLOUDY    56  56 100 CALM      30.03S VSB 1/4
WATERTOWN      MOCLDY    55  55 100 CALM      30.03S FOG
MONROE         CLEAR     61  61 100 SW7       30.04R FOG
JANESVILLE     FOG       59  55  88 CALM      30.03S VSB 1/2
$$

WIZ051-052-058>065-066-070>072-311000-
SOUTHEAST WISCONSIN

CITY           SKY/WX    TMP DP  RH WIND       PRES   REMARKS
MILWAUKEE      FOG       60  59  96 SW5       30.03S VSB 3/4
WAUKESHA       CLEAR     59  57  94 CALM      30.05R FOG
MILWAUKEE/TIMM FOG       59  55  88 CALM      30.04S VSB 1
RACINE         CLEAR     61  59  93 SW5       30.05S FOG
BURLINGTON     FOG       53  53 100 CALM      30.04S VSB 1/2
KENOSHA        FOG       58  58 100 SW3       30.04S VSB<1/4
FOND DU LAC    FOG       60  59  96 CALM      30.03R VSB 3/4
SHEBOYGAN      CLEAR     58  58 100 SW5       30.02S FOG
WEST BEND      FOG       55  55 100 CALM      30.03R VSB 3/4
JUNEAU         FOG       57  57  99 CALM      30.04S VSB<1/4
$$

LSZ147-162-311000-
LAKE SUPERIOR

STATION/POSITION TIME  TEMP    WIND        PRES    WAVE
                       AIR SEA DIR/SP/G            HT/PER
                 (UTC) (F)     (DEG/KT/KT) (MB)    (FT/S)
W MID LAKE BUOY  0850   60 54  200/ 10/ 12 1012.0R   1
DEVILS ISLAND    0900   66     180/  6/  9 1011.9R
PORT WING        0800   67     180/  5/ 10 1012.2
SAXON HARBOR     0800   67      CALM  /  4 1012.5R
$$

LMZ867-665-643>646-311000-
LAKE MICHIGAN

STATION/POSITION TIME  TEMP    WIND        PRES    WAVE
                       AIR SEA DIR/SP/G            HT/PER
                 (UTC) (F)     (DEG/KT/KT) (MB)    (FT/S)
CHAMBERS ISLAND  0800   64     190/  6/ 10 1014.9S
N MID LAKE BUOY  0850   64 65  220/ 12/ 14 1014.5R   3/ 5
NORTHPORT PIER   0802   63     250/  3/  6 1014.6S
SHEBOYGAN LAKESH 0900   60     210/  5/  5 1016.9R
PORT WASHINGTON  0840   53      CALM  /  2 1017.3R
ATWATER BUOY     0900   55 49  180/  6/  8 1018.2R
MILWAUKEE LAKESH 0800   62     190/  5/  5   N/A
S MID LAKE BUOY  0850   68 68  190/  6/  6 1016.7S   0
KENOSHA   LAKESH 0900   63     230/  2/  4 1016.9R
$$

TC  - TEMPERATURE IN CELSIUS
VSB - VISIBILITY IN STATUTE MILES
WCI - WIND CHILL INDEX
HX  - HEAT INDEX




USA.gov is the U.S. government's official web portal to all federal, state and local government web resources and services.